Station Historical Data
Daily Summary for October 3, 2017 Units:  English    Metric   Both
Next Day »
Daily Weekly Monthly Yearly Custom
  High: Low: Average:
Temperature: 67.7 °F 50.0 °F 56.6 °F
Dew Point: 35.7 °F 25.8 °F 30.1 °F
Humidity: 47% 22% 37%
Wind Speed: 13.0mph 0.0mph 1.8mph
Wind Gust: 22.0mph - -
Wind- - SE
Pressure: 30.01 in 29.76 in -
Precipitation: 0.00 in    
Historical Graphs
 
 
Tabular Data for October 3, 2017
Time Temperature Dew Point Pressure Wind Wind Speed Wind Gust Humidity Rainfall Rate (Hourly) solar Conditions
00:03 51.2 °F 28.3 °F 29.78 in East 1.0 mph 7.0 mph 41% 0.00 in 0.00 W/m2
00:18 51.0 °F 28.1 °F 29.77 in Calm   8.0 mph 41% 0.00 in 0.00 W/m2
00:23 50.9 °F 28.1 °F 29.78 in Calm   11.0 mph 41% 0.00 in 0.00 W/m2
00:28 50.9 °F 28.1 °F 29.77 in ESE 2.0 mph 8.0 mph 41% 0.00 in 0.00 W/m2
00:33 50.8 °F 28.0 °F 29.77 in East 5.0 mph 8.0 mph 41% 0.00 in 0.00 W/m2
00:38 50.8 °F 27.4 °F 29.77 in Calm   13.0 mph 40% 0.00 in 0.00 W/m2
00:43 50.8 °F 28.0 °F 29.77 in East 1.0 mph 8.0 mph 41% 0.00 in 0.00 W/m2
00:48 50.7 °F 27.9 °F 29.77 in East 1.0 mph 8.0 mph 41% 0.00 in 0.00 W/m2
00:53 50.6 °F 27.8 °F 29.77 in Calm   13.0 mph 41% 0.00 in 0.00 W/m2
00:58 50.6 °F 27.8 °F 29.77 in ESE 1.0 mph 11.0 mph 41% 0.00 in 0.00 W/m2
01:03 50.5 °F 27.7 °F 29.77 in East 2.0 mph 12.0 mph 41% 0.00 in 0.00 W/m2
01:08 50.4 °F 28.2 °F 29.77 in Calm   14.0 mph 42% 0.00 in 0.00 W/m2
01:13 50.3 °F 27.5 °F 29.77 in ESE 1.0 mph 12.0 mph 41% 0.00 in 0.00 W/m2
01:18 50.3 °F 27.5 °F 29.77 in Calm   12.0 mph 41% 0.00 in 0.00 W/m2
01:23 50.3 °F 27.5 °F 29.77 in ESE 2.0 mph 13.0 mph 41% 0.00 in 0.00 W/m2
01:28 50.3 °F 27.5 °F 29.77 in East 7.0 mph 12.0 mph 41% 0.00 in 0.00 W/m2
01:33 50.3 °F 28.1 °F 29.77 in East 8.0 mph 14.0 mph 42% 0.00 in 0.00 W/m2
01:38 50.3 °F 28.1 °F 29.77 in Calm   12.0 mph 42% 0.00 in 0.00 W/m2
01:43 50.3 °F 27.5 °F 29.77 in ESE 1.0 mph 11.0 mph 41% 0.00 in 0.00 W/m2
01:49 50.4 °F 27.6 °F 29.77 in East 2.0 mph 11.0 mph 41% 0.00 in 0.00 W/m2
01:54 50.4 °F 28.2 °F 29.76 in ESE 5.0 mph 15.0 mph 42% 0.00 in 0.00 W/m2
01:59 50.3 °F 27.5 °F 29.76 in East 9.0 mph 13.0 mph 41% 0.00 in 0.00 W/m2
02:04 50.3 °F 27.5 °F 29.76 in East 2.0 mph 15.0 mph 41% 0.00 in 0.00 W/m2
02:09 50.3 °F 27.5 °F 29.76 in East 6.0 mph 13.0 mph 41% 0.00 in 0.00 W/m2
02:14 50.3 °F 27.5 °F 29.76 in ESE 1.0 mph 8.0 mph 41% 0.00 in 0.00 W/m2
02:19 50.3 °F 28.1 °F 29.76 in Calm   10.0 mph 42% 0.00 in 0.00 W/m2
02:24 50.2 °F 27.4 °F 29.77 in ESE 4.0 mph 14.0 mph 41% 0.00 in 0.00 W/m2
02:29 50.1 °F 27.9 °F 29.77 in Calm   12.0 mph 42% 0.00 in 0.00 W/m2
02:34 50.1 °F 27.9 °F 29.77 in East 1.0 mph 8.0 mph 42% 0.00 in 0.00 W/m2
02:39 50.1 °F 27.9 °F 29.77 in Calm   7.0 mph 42% 0.00 in 0.00 W/m2
02:44 50.0 °F 27.8 °F 29.77 in East 6.0 mph 16.0 mph 42% 0.00 in 0.00 W/m2
02:49 50.0 °F 27.8 °F 29.77 in Calm   11.0 mph 42% 0.00 in 0.00 W/m2
02:54 50.0 °F 27.8 °F 29.77 in East 6.0 mph 9.0 mph 42% 0.00 in 0.00 W/m2
02:59 50.0 °F 27.2 °F 29.77 in Calm   12.0 mph 41% 0.00 in 0.00 W/m2
03:04 50.0 °F 27.8 °F 29.77 in East 6.0 mph 9.0 mph 42% 0.00 in 0.00 W/m2
03:09 50.1 °F 27.3 °F 29.78 in Calm   9.0 mph 41% 0.00 in 0.00 W/m2
03:14 50.1 °F 27.3 °F 29.77 in East 1.0 mph 9.0 mph 41% 0.00 in 0.00 W/m2
03:19 50.1 °F 27.3 °F 29.77 in East 1.0 mph 9.0 mph 41% 0.00 in 0.00 W/m2
03:24 50.2 °F 27.4 °F 29.77 in East 4.0 mph 14.0 mph 41% 0.00 in 0.00 W/m2
03:29 50.2 °F 27.4 °F 29.77 in ESE 2.0 mph 14.0 mph 41% 0.00 in 0.00 W/m2
03:34 50.3 °F 28.1 °F 29.77 in Calm   12.0 mph 42% 0.00 in 0.00 W/m2
03:44 50.3 °F 27.5 °F 29.77 in East 10.0 mph 10.0 mph 41% 0.00 in 0.00 W/m2
03:49 50.3 °F 27.5 °F 29.77 in Calm   15.0 mph 41% 0.00 in 0.00 W/m2
03:54 50.4 °F 27.0 °F 29.77 in East 1.0 mph 15.0 mph 40% 0.00 in 0.00 W/m2
03:59 50.4 °F 27.0 °F 29.77 in Calm   16.0 mph 40% 0.00 in 0.00 W/m2
04:09 50.6 °F 26.6 °F 29.77 in Calm   8.0 mph 39% 0.00 in 0.00 W/m2
04:14 50.7 °F 26.7 °F 29.77 in Calm   16.0 mph 39% 0.00 in 0.00 W/m2
04:19 50.8 °F 26.1 °F 29.77 in East 7.0 mph 11.0 mph 38% 0.00 in 0.00 W/m2
04:24 50.9 °F 26.2 °F 29.77 in Calm   7.0 mph 38% 0.00 in 0.00 W/m2
04:29 51.0 °F 26.3 °F 29.77 in Calm   11.0 mph 38% 0.00 in 0.00 W/m2
04:34 51.0 °F 26.3 °F 29.77 in Calm   9.0 mph 38% 0.00 in 0.00 W/m2
04:39 51.1 °F 26.4 °F 29.77 in Calm   11.0 mph 38% 0.00 in 0.00 W/m2
04:44 51.1 °F 26.4 °F 29.77 in Calm   8.0 mph 38% 0.00 in 0.00 W/m2
04:49 51.1 °F 26.4 °F 29.77 in Calm   10.0 mph 38% 0.00 in 0.00 W/m2
04:54 51.1 °F 26.4 °F 29.77 in Calm   14.0 mph 38% 0.00 in 0.00 W/m2
04:59 51.1 °F 26.4 °F 29.77 in Calm   11.0 mph 38% 0.00 in 0.00 W/m2
05:04 51.1 °F 25.8 °F 29.77 in ESE 5.0 mph 11.0 mph 37% 0.00 in 0.00 W/m2
05:09 51.1 °F 26.4 °F 29.77 in ESE 4.0 mph 8.0 mph 38% 0.00 in 0.00 W/m2
05:14 51.1 °F 26.4 °F 29.77 in Calm   8.0 mph 38% 0.00 in 0.00 W/m2
05:19 51.1 °F 26.4 °F 29.77 in East 1.0 mph 16.0 mph 38% 0.00 in 0.00 W/m2
05:24 51.1 °F 26.4 °F 29.77 in Calm   8.0 mph 38% 0.00 in 0.00 W/m2
05:29 51.1 °F 27.0 °F 29.77 in ESE 4.0 mph 14.0 mph 39% 0.00 in 0.00 W/m2
05:34 51.1 °F 26.4 °F 29.77 in Calm   12.0 mph 38% 0.00 in 0.00 W/m2
05:40 51.1 °F 26.4 °F 29.77 in Calm   13.0 mph 38% 0.00 in 0.00 W/m2
05:45 51.1 °F 26.4 °F 29.77 in ENE 1.0 mph 11.0 mph 38% 0.00 in 0.00 W/m2
05:50 51.1 °F 26.4 °F 29.77 in ESE 7.0 mph 11.0 mph 38% 0.00 in 0.00 W/m2
05:55 51.1 °F 26.4 °F 29.77 in East 8.0 mph 13.0 mph 38% 0.00 in 0.00 W/m2
06:00 51.2 °F 26.5 °F 29.77 in ENE 5.0 mph 10.0 mph 38% 0.00 in 0.00 W/m2
06:05 51.2 °F 26.5 °F 29.77 in Calm   12.0 mph 38% 0.00 in 0.00 W/m2
06:10 51.3 °F 26.6 °F 29.77 in Calm   13.0 mph 38% 0.00 in 0.00 W/m2
06:16 51.3 °F 27.2 °F 29.77 in Calm   4.0 mph 39% 0.00 in 0.00 W/m2
06:21 51.3 °F 26.6 °F 29.77 in Calm   13.0 mph 38% 0.00 in 0.00 W/m2
06:26 51.4 °F 27.3 °F 29.78 in East 1.0 mph 11.0 mph 39% 0.00 in 0.00 W/m2
06:31 51.4 °F 26.7 °F 29.78 in East 2.0 mph 16.0 mph 38% 0.00 in 0.00 W/m2
06:36 51.5 °F 26.8 °F 29.78 in East 6.0 mph 6.0 mph 38% 0.00 in 0.00 W/m2
06:41 51.4 °F 26.7 °F 29.78 in Calm   11.0 mph 38% 0.00 in 0.00 W/m2
06:46 51.5 °F 26.8 °F 29.78 in East 5.0 mph 13.0 mph 38% 0.00 in 0.00 W/m2
06:51 51.5 °F 27.4 °F 29.78 in East 6.0 mph 13.0 mph 39% 0.00 in 0.00 W/m2
06:56 51.5 °F 27.4 °F 29.78 in East 6.0 mph 12.0 mph 39% 0.00 in 5.00 W/m2
07:00 51.5 °F 27.4 °F 29.78 in East 1.0 mph 14.0 mph 39% 0.00 in 7.00 W/m2
07:06 51.4 °F 27.3 °F 29.78 in Calm   12.0 mph 39% 0.00 in 9.00 W/m2
07:11 51.4 °F 27.3 °F 29.78 in East 6.0 mph 11.0 mph 39% 0.00 in 12.00 W/m2
07:16 51.4 °F 27.3 °F 29.78 in East 4.0 mph 13.0 mph 39% 0.00 in 16.00 W/m2
07:21 51.3 °F 27.8 °F 29.78 in ENE 4.0 mph 10.0 mph 40% 0.00 in 19.00 W/m2
07:26 51.3 °F 27.8 °F 29.79 in Calm   11.0 mph 40% 0.00 in 25.00 W/m2
07:27 51.2 °F 27.7 °F 29.79 in East 4.0 mph 8.0 mph 40% 0.00 in 26.00 W/m2
07:31 51.2 °F 27.7 °F 29.79 in Calm   7.0 mph 40% 0.00 in 35.00 W/m2
07:36 51.2 °F 28.3 °F 29.79 in Calm   5.0 mph 41% 0.00 in 47.00 W/m2
07:41 51.2 °F 28.3 °F 29.79 in Calm   13.0 mph 41% 0.00 in 58.00 W/m2
07:46 51.2 °F 28.3 °F 29.79 in Calm   8.0 mph 41% 0.00 in 74.00 W/m2
07:56 51.3 °F 28.4 °F 29.80 in East 8.0 mph 8.0 mph 41% 0.00 in 107.00 W/m2
08:01 51.4 °F 28.5 °F 29.80 in Calm     41% 0.00 in 127.00 W/m2
08:06 51.4 °F 29.1 °F 29.80 in Calm   5.0 mph 42% 0.00 in 146.00 W/m2
08:11 51.5 °F 29.2 °F 29.80 in Calm     42% 0.00 in 165.00 W/m2
08:16 51.7 °F 29.4 °F 29.80 in East 1.0 mph 4.0 mph 42% 0.00 in 186.00 W/m2
08:22 51.8 °F 29.5 °F 29.80 in Calm   7.0 mph 42% 0.00 in 204.00 W/m2
08:26 51.9 °F 30.1 °F 29.80 in Calm   1.0 mph 43% 0.00 in 225.00 W/m2
08:32 52.0 °F 29.6 °F 29.81 in East 7.0 mph 7.0 mph 42% 0.00 in 244.00 W/m2
08:37 52.2 °F 29.8 °F 29.81 in Calm   2.0 mph 42% 0.00 in 265.00 W/m2
08:42 52.3 °F 30.5 °F 29.81 in Calm   6.0 mph 43% 0.00 in 287.00 W/m2
08:47 52.5 °F 30.7 °F 29.81 in Calm   2.0 mph 43% 0.00 in 302.00 W/m2
08:52 52.6 °F 30.8 °F 29.81 in Calm     43% 0.00 in 320.00 W/m2
08:57 52.8 °F 30.9 °F 29.81 in Calm   7.0 mph 43% 0.00 in 338.00 W/m2
09:02 53.0 °F 30.5 °F 29.81 in ESE 8.0 mph 8.0 mph 42% 0.00 in 352.00 W/m2
09:07 53.2 °F 30.1 °F 29.81 in Calm   8.0 mph 41% 0.00 in 366.00 W/m2
09:12 53.5 °F 31.0 °F 29.81 in Calm     42% 0.00 in 380.00 W/m2
09:17 53.7 °F 31.2 °F 29.81 in Calm   6.0 mph 42% 0.00 in 394.00 W/m2
09:22 53.9 °F 31.4 °F 29.81 in Calm     42% 0.00 in 411.00 W/m2
09:27 54.2 °F 31.6 °F 29.81 in East 4.0 mph 6.0 mph 42% 0.00 in 425.00 W/m2
09:32 54.5 °F 31.9 °F 29.82 in Calm   2.0 mph 42% 0.00 in 441.00 W/m2
09:42 55.1 °F 32.4 °F 29.82 in Calm     42% 0.00 in 469.00 W/m2
09:47 55.5 °F 31.6 °F 29.82 in ESE 8.0 mph 15.0 mph 40% 0.00 in 475.00 W/m2
09:52 55.8 °F 29.9 °F 29.82 in East 8.0 mph 10.0 mph 37% 0.00 in 485.00 W/m2
09:57 56.1 °F 31.5 °F 29.82 in ESE 2.0 mph 14.0 mph 39% 0.00 in 506.00 W/m2
10:02 56.7 °F 29.4 °F 29.82 in East 12.0 mph 15.0 mph 35% 0.00 in 519.00 W/m2
10:07 57.2 °F 30.5 °F 29.82 in Calm     36% 0.00 in 534.00 W/m2
10:12 57.6 °F 30.2 °F 29.82 in ESE 13.0 mph 13.0 mph 35% 0.00 in 543.00 W/m2
10:22 58.6 °F 29.6 °F 29.82 in Calm   15.0 mph 33% 0.00 in 568.00 W/m2
10:27 59.0 °F 30.7 °F 29.82 in Calm   12.0 mph 34% 0.00 in 578.00 W/m2
10:32 59.3 °F 30.2 °F 29.83 in Calm   2.0 mph 33% 0.00 in 587.00 W/m2
10:37 59.6 °F 29.7 °F 29.83 in East 7.0 mph 14.0 mph 32% 0.00 in 596.00 W/m2
10:42 60.0 °F 30.1 °F 29.83 in ESE 9.0 mph 9.0 mph 32% 0.00 in 608.00 W/m2
10:47 60.4 °F 29.6 °F 29.83 in Calm   5.0 mph 31% 0.00 in 619.00 W/m2
10:52 60.7 °F 29.9 °F 29.83 in East 6.0 mph 13.0 mph 31% 0.00 in 628.00 W/m2
10:57 61.1 °F 28.6 °F 29.83 in Calm   2.0 mph 29% 0.00 in 636.00 W/m2
11:07 61.7 °F 29.1 °F 29.83 in East 11.0 mph 12.0 mph 29% 0.00 in 654.00 W/m2
11:12 62.0 °F 29.4 °F 29.83 in SE 10.0 mph 12.0 mph 29% 0.00 in 663.00 W/m2
11:17 62.2 °F 29.6 °F 29.83 in ESE 7.0 mph 12.0 mph 29% 0.00 in 668.00 W/m2
11:22 62.5 °F 29.0 °F 29.83 in SE 9.0 mph 13.0 mph 28% 0.00 in 673.00 W/m2
11:27 62.9 °F 28.4 °F 29.83 in East 9.0 mph 16.0 mph 27% 0.00 in 686.00 W/m2
11:33 63.2 °F 28.7 °F 29.83 in East 5.0 mph 6.0 mph 27% 0.00 in 693.00 W/m2
11:38 63.5 °F 29.0 °F 29.83 in East 4.0 mph 4.0 mph 27% 0.00 in 703.00 W/m2
11:43 63.8 °F 29.2 °F 29.83 in Calm   14.0 mph 27% 0.00 in 707.00 W/m2
11:48 64.1 °F 28.5 °F 29.83 in Calm   5.0 mph 26% 0.00 in 708.00 W/m2
11:53 64.4 °F 27.8 °F 29.83 in Calm   7.0 mph 25% 0.00 in 724.00 W/m2
11:58 64.5 °F 27.9 °F 29.83 in Calm   13.0 mph 25% 0.00 in 729.00 W/m2
12:03 64.5 °F 27.9 °F 29.83 in Calm   5.0 mph 25% 0.00 in 102.00 W/m2
12:08 64.4 °F 28.8 °F 29.83 in East 2.0 mph 3.0 mph 26% 0.00 in 763.00 W/m2
12:13 64.3 °F 28.7 °F 29.83 in Calm   13.0 mph 26% 0.00 in 772.00 W/m2
12:18 64.3 °F 27.8 °F 29.83 in Calm   5.0 mph 25% 0.00 in 765.00 W/m2
12:23 64.3 °F 26.8 °F 29.84 in East 1.0 mph 7.0 mph 24% 0.00 in 765.00 W/m2
12:28 64.3 °F 27.8 °F 29.83 in Calm   6.0 mph 25% 0.00 in 782.00 W/m2
12:33 64.4 °F 27.8 °F 29.83 in Calm   8.0 mph 25% 0.00 in 789.00 W/m2
12:38 64.6 °F 27.0 °F 29.84 in Calm   8.0 mph 24% 0.00 in 809.00 W/m2
12:43 64.7 °F 27.1 °F 29.84 in Calm   7.0 mph 24% 0.00 in 821.00 W/m2
12:48 64.8 °F 27.2 °F 29.84 in Calm     24% 0.00 in 814.00 W/m2
12:53 64.7 °F 27.1 °F 29.84 in Calm     24% 0.00 in 812.00 W/m2
12:58 64.9 °F 28.3 °F 29.84 in East 3.0 mph 4.0 mph 25% 0.00 in 821.00 W/m2
13:03 65.1 °F 28.4 °F 29.84 in Calm   8.0 mph 25% 0.00 in 837.00 W/m2
13:08 65.5 °F 28.8 °F 29.84 in Calm   9.0 mph 25% 0.00 in 830.00 W/m2
13:13 65.8 °F 28.0 °F 29.84 in Calm   6.0 mph 24% 0.00 in 830.00 W/m2
13:18 66.1 °F 28.3 °F 29.84 in SSW 6.0 mph 8.0 mph 24% 0.00 in 824.00 W/m2
13:23 66.4 °F 28.5 °F 29.84 in SE 4.0 mph 8.0 mph 24% 0.00 in 826.00 W/m2
13:28 66.7 °F 27.8 °F 29.84 in Calm     23% 0.00 in 842.00 W/m2
13:33 66.8 °F 28.9 °F 29.84 in Calm   10.0 mph 24% 0.00 in 882.00 W/m2
13:38 67.0 °F 29.0 °F 29.83 in Calm   10.0 mph 24% 0.00 in 896.00 W/m2
13:43 67.1 °F 28.1 °F 29.84 in SSW 4.0 mph 11.0 mph 23% 0.00 in 907.00 W/m2
13:48 67.4 °F 29.4 °F 29.84 in Calm   9.0 mph 24% 0.00 in 854.00 W/m2
13:53 67.6 °F 28.5 °F 29.84 in Calm   1.0 mph 23% 0.00 in 830.00 W/m2
13:55 67.6 °F 27.4 °F 29.84 in Calm   5.0 mph 22% 0.00 in 824.00 W/m2
14:00 67.7 °F 27.5 °F 29.84 in Calm   7.0 mph 22% 0.00 in 812.00 W/m2
14:05 67.7 °F 27.5 °F 29.84 in Calm   9.0 mph 22% 0.00 in 578.00 W/m2
14:10 67.4 °F 27.3 °F 29.84 in Calm   7.0 mph 22% 0.00 in 791.00 W/m2
14:15 66.7 °F 28.8 °F 29.84 in Calm   4.0 mph 24% 0.00 in 680.00 W/m2
14:20 66.4 °F 35.7 °F 29.84 in NW 3.0 mph 4.0 mph 32% 0.00 in 714.00 W/m2
14:25 65.6 °F 35.0 °F 29.84 in NNW 3.0 mph 14.0 mph 32% 0.00 in 814.00 W/m2
14:31 65.0 °F 32.8 °F 29.84 in WNW 8.0 mph 22.0 mph 30% 0.00 in 812.00 W/m2
14:36 64.7 °F 32.6 °F 29.85 in Calm   18.0 mph 30% 0.00 in 758.00 W/m2
14:41 64.8 °F 31.0 °F 29.85 in NNW 2.0 mph 9.0 mph 28% 0.00 in 810.00 W/m2
14:46 65.0 °F 29.3 °F 29.85 in NNW 1.0 mph 2.0 mph 26% 0.00 in 838.00 W/m2
14:50 65.4 °F 29.6 °F 29.85 in Calm   9.0 mph 26% 0.00 in 821.00 W/m2
14:56 65.8 °F 29.0 °F 29.85 in NNW 2.0 mph 8.0 mph 25% 0.00 in 817.00 W/m2
15:01 65.9 °F 29.1 °F 29.85 in Calm   12.0 mph 25% 0.00 in 798.00 W/m2
15:06 66.0 °F 30.2 °F 29.85 in North 6.0 mph 13.0 mph 26% 0.00 in 784.00 W/m2
15:11 66.1 °F 29.3 °F 29.85 in NNW 5.0 mph 16.0 mph 25% 0.00 in 768.00 W/m2
15:16 66.1 °F 29.3 °F 29.85 in West 5.0 mph 11.0 mph 25% 0.00 in 756.00 W/m2
15:21 66.2 °F 30.3 °F 29.86 in Calm   8.0 mph 26% 0.00 in 705.00 W/m2
15:26 66.2 °F 28.4 °F 29.86 in NW 2.0 mph 14.0 mph 24% 0.00 in 237.00 W/m2
15:31 65.9 °F 28.1 °F 29.87 in Calm   17.0 mph 24% 0.00 in 213.00 W/m2
15:36 65.7 °F 29.0 °F 29.87 in Calm   3.0 mph 25% 0.00 in 176.00 W/m2
15:41 65.3 °F 29.6 °F 29.88 in Calm   11.0 mph 26% 0.00 in 149.00 W/m2
15:46 65.1 °F 29.4 °F 29.88 in Calm     26% 0.00 in 137.00 W/m2
15:51 65.0 °F 30.2 °F 29.88 in Calm   6.0 mph 27% 0.00 in 153.00 W/m2
15:56 65.0 °F 31.1 °F 29.88 in SE 6.0 mph 8.0 mph 28% 0.00 in 158.00 W/m2
16:01 64.9 °F 31.0 °F 29.89 in Calm   12.0 mph 28% 0.00 in 135.00 W/m2
16:06 64.8 °F 31.8 °F 29.89 in Calm   5.0 mph 29% 0.00 in 142.00 W/m2
16:11 64.7 °F 31.7 °F 29.89 in South 2.0 mph 7.0 mph 29% 0.00 in 146.00 W/m2
16:16 64.6 °F 31.6 °F 29.89 in Calm   7.0 mph 29% 0.00 in 176.00 W/m2
16:21 64.5 °F 31.6 °F 29.90 in Calm   8.0 mph 29% 0.00 in 290.00 W/m2
16:26 64.4 °F 32.3 °F 29.90 in Calm   9.0 mph 30% 0.00 in 302.00 W/m2
16:31 64.2 °F 31.3 °F 29.90 in Calm     29% 0.00 in 104.00 W/m2
16:36 63.8 °F 31.8 °F 29.90 in ESE 5.0 mph 5.0 mph 30% 0.00 in 123.00 W/m2
16:41 63.5 °F 31.5 °F 29.91 in Calm     30% 0.00 in 408.00 W/m2
16:46 63.3 °F 32.2 °F 29.91 in Calm     31% 0.00 in 420.00 W/m2
16:51 63.1 °F 32.8 °F 29.91 in SE 9.0 mph 12.0 mph 32% 0.00 in 425.00 W/m2
16:56 63.1 °F 33.6 °F 29.91 in ESE 11.0 mph 11.0 mph 33% 0.00 in 411.00 W/m2
17:01 63.1 °F 33.6 °F 29.91 in SE 12.0 mph 12.0 mph 33% 0.00 in 392.00 W/m2
17:06 63.1 °F 32.8 °F 29.91 in SE 6.0 mph 6.0 mph 32% 0.00 in 369.00 W/m2
17:11 63.0 °F 33.5 °F 29.91 in ESE 2.0 mph 8.0 mph 33% 0.00 in 346.00 W/m2
17:16 63.0 °F 33.5 °F 29.91 in Calm     33% 0.00 in 336.00 W/m2
17:21 62.9 °F 33.4 °F 29.91 in ESE 5.0 mph 6.0 mph 33% 0.00 in 311.00 W/m2
17:26 62.9 °F 32.6 °F 29.92 in ESE 5.0 mph 5.0 mph 32% 0.00 in 285.00 W/m2
17:31 62.9 °F 32.6 °F 29.92 in Calm     32% 0.00 in 225.00 W/m2
17:36 62.7 °F 33.2 °F 29.92 in Calm   8.0 mph 33% 0.00 in 185.00 W/m2
17:41 62.7 °F 32.4 °F 29.93 in Calm   5.0 mph 32% 0.00 in 153.00 W/m2
17:46 62.6 °F 32.3 °F 29.92 in Calm   2.0 mph 32% 0.00 in 53.00 W/m2
17:51 62.5 °F 33.0 °F 29.92 in Calm     33% 0.00 in 37.00 W/m2
17:56 62.2 °F 32.8 °F 29.93 in Calm     33% 0.00 in 28.00 W/m2
18:01 62.0 °F 34.1 °F 29.93 in Calm     35% 0.00 in 21.00 W/m2
18:06 61.7 °F 35.2 °F 29.93 in WNW 2.0 mph 6.0 mph 37% 0.00 in 21.00 W/m2
18:11 61.2 °F 34.1 °F 29.93 in West 1.0 mph 2.0 mph 36% 0.00 in 23.00 W/m2
18:13 61.1 °F 34.0 °F 29.93 in NNW 1.0 mph 3.0 mph 36% 0.00 in 25.00 W/m2
18:18 60.8 °F 32.3 °F 29.94 in Calm   2.0 mph 34% 0.00 in 37.00 W/m2
18:23 60.7 °F 33.6 °F 29.93 in Calm     36% 0.00 in 35.00 W/m2
18:33 60.5 °F 33.4 °F 29.93 in Calm   4.0 mph 36% 0.00 in 21.00 W/m2
18:38 60.4 °F 33.3 °F 29.93 in Calm   1.0 mph 36% 0.00 in 11.00 W/m2
18:43 60.3 °F 33.3 °F 29.93 in Calm   1.0 mph 36% 0.00 in 7.00 W/m2
18:48 60.1 °F 33.1 °F 29.94 in Calm   2.0 mph 36% 0.00 in 5.00 W/m2
18:53 60.0 °F 33.0 °F 29.94 in ESE 1.0 mph 1.0 mph 36% 0.00 in 0.00 W/m2
18:58 59.9 °F 33.6 °F 29.94 in Calm   1.0 mph 37% 0.00 in 0.00 W/m2
19:03 59.6 °F 34.0 °F 29.94 in Calm     38% 0.00 in 0.00 W/m2
19:08 59.1 °F 34.2 °F 29.94 in Calm     39% 0.00 in 0.00 W/m2
19:13 58.5 °F 34.3 °F 29.95 in Calm     40% 0.00 in 0.00 W/m2
19:18 58.0 °F 34.5 °F 29.95 in Calm     41% 0.00 in 0.00 W/m2
19:23 57.7 °F 34.2 °F 29.95 in Calm     41% 0.00 in 0.00 W/m2
19:26 57.5 °F 34.0 °F 29.95 in Calm     41% 0.00 in 0.00 W/m2
19:31 56.9 °F 34.1 °F 29.95 in Calm     42% 0.00 in 0.00 W/m2
19:36 56.6 °F 33.8 °F 29.95 in Calm     42% 0.00 in 0.00 W/m2
19:41 56.4 °F 33.6 °F 29.96 in Calm     42% 0.00 in 0.00 W/m2
19:46 56.2 °F 34.0 °F 29.95 in Calm     43% 0.00 in 0.00 W/m2
19:51 56.0 °F 33.8 °F 29.96 in Calm     43% 0.00 in 0.00 W/m2
19:56 55.9 °F 34.3 °F 29.96 in Calm   1.0 mph 44% 0.00 in 0.00 W/m2
20:01 55.7 °F 34.1 °F 29.96 in East 2.0 mph 2.0 mph 44% 0.00 in 0.00 W/m2
20:06 55.4 °F 33.9 °F 29.96 in Calm     44% 0.00 in 0.00 W/m2
20:12 55.1 °F 34.2 °F 29.96 in Calm     45% 0.00 in 0.00 W/m2
20:17 55.0 °F 34.1 °F 29.97 in Calm   1.0 mph 45% 0.00 in 0.00 W/m2
20:22 54.9 °F 34.0 °F 29.97 in Calm     45% 0.00 in 0.00 W/m2
20:27 54.9 °F 34.0 °F 29.97 in Calm     45% 0.00 in 0.00 W/m2
20:32 54.8 °F 34.4 °F 29.97 in Calm   2.0 mph 46% 0.00 in 0.00 W/m2
20:33 54.9 °F 34.5 °F 29.98 in ESE 1.0 mph 2.0 mph 46% 0.00 in 0.00 W/m2
20:38 54.8 °F 34.4 °F 29.98 in Calm   5.0 mph 46% 0.00 in 0.00 W/m2
20:43 54.7 °F 34.3 °F 29.98 in East 1.0 mph 5.0 mph 46% 0.00 in 0.00 W/m2
20:48 54.6 °F 34.2 °F 29.98 in Calm   1.0 mph 46% 0.00 in 0.00 W/m2
20:53 54.4 °F 34.6 °F 29.98 in Calm   5.0 mph 47% 0.00 in 0.00 W/m2
20:58 54.3 °F 34.5 °F 29.98 in Calm   7.0 mph 47% 0.00 in 0.00 W/m2
21:03 54.1 °F 34.3 °F 29.98 in Calm   5.0 mph 47% 0.00 in 0.00 W/m2
21:08 54.0 °F 34.2 °F 29.98 in Calm   7.0 mph 47% 0.00 in 0.00 W/m2
21:13 54.0 °F 34.2 °F 29.98 in Calm   4.0 mph 47% 0.00 in 0.00 W/m2
21:18 53.9 °F 34.2 °F 29.98 in Calm   5.0 mph 47% 0.00 in 0.00 W/m2
21:23 53.8 °F 34.1 °F 29.98 in Calm   5.0 mph 47% 0.00 in 0.00 W/m2
21:28 53.8 °F 34.1 °F 29.99 in East 4.0 mph 5.0 mph 47% 0.00 in 0.00 W/m2
21:33 53.7 °F 34.0 °F 29.99 in Calm   5.0 mph 47% 0.00 in 0.00 W/m2
21:38 53.6 °F 33.3 °F 29.99 in ESE 5.0 mph 8.0 mph 46% 0.00 in 0.00 W/m2
21:43 53.5 °F 33.2 °F 29.99 in Calm   6.0 mph 46% 0.00 in 0.00 W/m2
21:48 53.4 °F 33.2 °F 29.99 in Calm   4.0 mph 46% 0.00 in 0.00 W/m2
21:53 53.4 °F 33.2 °F 29.99 in Calm   6.0 mph 46% 0.00 in 0.00 W/m2
21:58 53.3 °F 33.1 °F 29.99 in Calm   8.0 mph 46% 0.00 in 0.00 W/m2
22:03 53.3 °F 33.1 °F 29.99 in East 5.0 mph 8.0 mph 46% 0.00 in 0.00 W/m2
22:08 53.2 °F 33.0 °F 29.99 in Calm   7.0 mph 46% 0.00 in 0.00 W/m2
22:13 53.2 °F 33.0 °F 29.99 in East 6.0 mph 8.0 mph 46% 0.00 in 0.00 W/m2
22:19 53.2 °F 33.0 °F 29.99 in East 7.0 mph 9.0 mph 46% 0.00 in 0.00 W/m2
22:24 53.2 °F 33.0 °F 29.99 in Calm   9.0 mph 46% 0.00 in 0.00 W/m2
22:29 53.2 °F 33.0 °F 29.99 in Calm   6.0 mph 46% 0.00 in 0.00 W/m2
22:34 53.2 °F 33.0 °F 30.00 in Calm   9.0 mph 46% 0.00 in 0.00 W/m2
22:39 53.1 °F 32.9 °F 30.00 in Calm   11.0 mph 46% 0.00 in 0.00 W/m2
22:44 53.1 °F 32.9 °F 30.00 in Calm   8.0 mph 46% 0.00 in 0.00 W/m2
22:49 53.1 °F 32.9 °F 30.00 in Calm   8.0 mph 46% 0.00 in 0.00 W/m2
22:54 53.0 °F 32.8 °F 30.00 in ESE 2.0 mph 11.0 mph 46% 0.00 in 0.00 W/m2
22:59 53.0 °F 32.8 °F 30.00 in Calm   9.0 mph 46% 0.00 in 0.00 W/m2
23:04 52.9 °F 32.7 °F 30.00 in ESE 1.0 mph 7.0 mph 46% 0.00 in 0.00 W/m2
23:09 52.9 °F 32.7 °F 30.00 in Calm   5.0 mph 46% 0.00 in 0.00 W/m2
23:14 52.8 °F 32.6 °F 30.00 in ESE 9.0 mph 9.0 mph 46% 0.00 in 0.00 W/m2
23:19 52.7 °F 32.5 °F 30.00 in East 2.0 mph 9.0 mph 46% 0.00 in 0.00 W/m2
23:24 52.6 °F 32.4 °F 30.01 in Calm   8.0 mph 46% 0.00 in 0.00 W/m2
23:29 52.5 °F 32.3 °F 30.01 in Calm   8.0 mph 46% 0.00 in 0.00 W/m2
23:34 52.4 °F 32.2 °F 30.01 in Calm   7.0 mph 46% 0.00 in 0.00 W/m2
23:39 52.3 °F 32.2 °F 30.01 in Calm   5.0 mph 46% 0.00 in 0.00 W/m2
23:44 52.3 °F 32.2 °F 30.01 in Calm   2.0 mph 46% 0.00 in 0.00 W/m2
23:49 52.2 °F 32.1 °F 30.01 in ESE 1.0 mph 5.0 mph 46% 0.00 in 0.00 W/m2
23:54 52.2 °F 32.1 °F 30.01 in East 5.0 mph 7.0 mph 46% 0.00 in 0.00 W/m2
23:59 52.1 °F 32.0 °F 30.01 in Calm   8.0 mph 46% 0.00 in 0.00 W/m2
Foresthill Weather
 WU-history PHP script courtesy of   Juneau County Weather.
powered by Cumulus v1.9.3 (1059)
Ambient Weather VWS v14.00
Top Contact Website Map Copyright © 2007 - 2018 Foresthillweather.com Never base important decisions on this or any weather information obtained from the Internet